Location: Butler
(32.5575°N, 84.2380°W)
Time: 15:29:47
(UTC+00:00)

Envisat - Visible Passes

Search period start: 01 December 2021 00:00
Search period end: 11 December 2021 00:00
Orbit: 764 x 766 km, 98.2° (Epoch: 01 December)

Date Brightness Start Highest point End Pass type
(mag) Time Alt. Az. Time Alt. Az. Time Alt. Az.
01 Dec 6.1 09:13:52 10° ENE 09:15:12 11° E 09:16:32 10° ESE visible
01 Dec 2.9 10:49:31 10° N 10:54:33 64° WNW 10:59:33 10° SSW visible
02 Dec 3.7 10:12:46 10° NNE 10:17:43 52° E 10:22:38 10° S visible
02 Dec 4.5 11:53:27 10° NNW 11:56:14 15° WNW 11:59:00 10° W visible
02 Dec 6.0 23:03:23 10° SW 23:06:37 17° W 23:09:53 10° NW visible
03 Dec 5.3 09:36:53 10° NE 09:40:43 21° E 09:44:31 10° SE visible
03 Dec 3.5 11:15:10 10° N 11:19:43 34° WNW 11:24:16 10° SW visible
04 Dec 2.9 10:37:55 10° N 10:43:01 84° WNW 10:48:05 10° SSW visible
05 Dec 4.3 10:01:23 10° NNE 10:06:08 39° E 10:10:51 10° SSE visible
05 Dec 4.2 11:41:16 10° NNW 11:44:48 19° WNW 11:48:20 10° WSW visible
05 Dec 5.8 22:51:05 10° SW 22:54:59 22° W 22:58:55 10° NW visible
06 Dec 5.7 09:25:57 10° NE 09:29:04 16° E 09:32:11 10° SE visible
06 Dec 3.2 11:03:25 10° N 11:08:13 45° WNW 11:13:02 10° SW visible
07 Dec 3.1 10:26:23 10° NNE 10:31:28 75° ESE 10:36:31 10° S visible
07 Dec 6.3 23:18:47 10° WSW 23:20:29 12° W 23:22:12 10° WNW visible
08 Dec 4.8 09:50:06 10° NE 09:54:32 30° E 09:58:58 10° SSE visible
08 Dec 3.9 11:29:17 10° NNW 11:33:21 25° WNW 11:37:25 10° WSW visible
09 Dec 6.0 09:15:29 10° ENE 09:17:25 12° E 09:19:21 10° ESE visible
09 Dec 2.9 10:51:44 10° N 10:56:43 59° WNW 11:01:41 10° SSW visible
10 Dec 3.6 10:14:55 10° NNE 10:19:55 57° E 10:24:53 10° S visible
10 Dec 4.6 11:55:54 10° NW 11:58:23 14° WNW 12:00:51 10° W visible
10 Dec 6.0 23:05:51 10° SW 23:08:50 16° W 23:11:50 10° WNW visible
